Regional Weather Roundup
Issued by NWS

Home | Current Version | Previous Version | Graphics & Text | Print | Product List | Glossary On
Versions: 1 2 3 4 5 6 7 8 9 10 11 12 13 14 15 16 17 18 19 20 21 22 23 24 25 26 27 28 29 30 31 32 33 34 35 36 37 38 39 40 41 42 43 44 45 46 47 48 49 50
000
ASUS43 KLMK 301602
RWRKY
KENTUCKY REGIONAL WEATHER ROUNDUP
NATIONAL WEATHER SERVICE LOUISVILLE KY
1200 PM EDT WED JUL 30 2014

NOTE "FAIR" INDICATES FEW OR NO CLOUDS BELOW 12,000 FEET
WITH NO SIGNIFICANT WEATHER AND/OR OBSTRUCTIONS TO VISIBILITY.

KYZ001>023-026-027-061>063-070>075-301700-
WESTERN AND SOUTH CENTRAL KENTUCKY

CITY           SKY/WX    TMP DP  RH WIND       PRES   REMARKS
PADUCAH        FAIR      76  58  53 W3        30.12R
HENDERSON      FAIR      79  61  53 W6        30.11R
OWENSBORO      FAIR      76  59  55 NW5       30.12S
HOPKINSVILLE   FAIR      77  55  47 VRB2      30.13S
BOWLING GREEN  FAIR      78  54  43 CALM      30.13S
GLASGOW        FAIR      75  56  50 W5        30.13S
$$

KYZ024-025-028>034-038-045-046-053-301700-
NORTH CENTRAL KENTUCKY

CITY           SKY/WX    TMP DP  RH WIND       PRES   REMARKS
LOUISVILLE/SDF FAIR      79  56  45 W10       30.10S
LOUISVILLE/LOU FAIR      77  55  46 NW9       30.11R
FORT KNOX      FAIR      77  58  53 VRB3      30.11S
$$

KYZ035>037-039>044-047>052-055>060-089>105-301700-
NORTHEAST KENTUCKY

CITY           SKY/WX    TMP DP  RH WIND       PRES   REMARKS
LEXINGTON      FAIR      76  59  55 NW7       30.12S
COVINGTON      FAIR      74  61  63 SW10      30.09S
FRANKFORT      FAIR      74  56  53 W7        30.11S
$$

KYZ054-064>069-076>088-106>120-301700-
SOUTHEAST KENTUCKY

CITY           SKY/WX    TMP DP  RH WIND       PRES   REMARKS
JACKSON        FAIR      69  56  62 CALM      30.14F
LONDON         FAIR      72  56  57 CALM      30.15S
SOMERSET       FAIR      70  57  64 CALM      30.15S
MIDDLESBORO    FAIR      70  54  57 CALM      30.15S
MONTICELLO     FAIR      76  60  57 NE6       30.15S
$$



USA.gov is the U.S. government's official web portal to all federal, state and local government web resources and services.